This is the latest recevied weather packets stored in our database for station/object AA4XD. If no packets are shown the sender has not sent any weather packets the latest 10 day(s).
| Time | Temp. | Humidity | Pressure | Rain* | Wind** | Luminosity | Snow |
|---|---|---|---|---|---|---|---|
| 1778005057 | 28.89° C | 44% | 1014.6 hPa | 0 mm | - | 295 W/m² | - |
| 1778004755 | 29.44° C | 45% | 1014.6 hPa | 0 mm | - | 260 W/m² | - |
| 1778004451 | 29.44° C | 45% | 1014.5 hPa | 0 mm | - | 279 W/m² | - |
| 1778004148 | 29.44° C | 45% | 1014.7 hPa | 0 mm | - | 724 W/m² | - |
| 1778003844 | 30° C | 43% | 1014.7 hPa | 0 mm | - | 368 W/m² | - |
| 1778003541 | 30° C | 44% | 1014.7 hPa | 0 mm | - | 282 W/m² | - |
| 1778003238 | 29.44° C | 44% | 1014.9 hPa | 0 mm | - | 378 W/m² | - |
| 1778002935 | 29.44° C | 43% | 1014.9 hPa | 0 mm | - | 255 W/m² | - |
| 1778002630 | 30.56° C | 41% | 1014.7 hPa | 0 mm | - | 254 W/m² | - |
| 1778002328 | 30° C | 42% | 1015.1 hPa | 0 mm | - | 573 W/m² | - |
| 1778002025 | 30.56° C | 42% | 1015 hPa | 0 mm | - | 1120 W/m² | - |
| 1778001721 | 30° C | 43% | 1014.9 hPa | 0 mm | - | 1148 W/m² | - |
| 1778001421 | 30.56° C | 43% | 1015.1 hPa | 0 mm | - | 1127 W/m² | - |
| 1778001118 | 30.56° C | 43% | 1015.2 hPa | 0 mm | - | 1044 W/m² | - |
| 1778000815 | 29.44° C | 45% | 1015.2 hPa | 0 mm | - | 1055 W/m² | - |
| 1778000512 | 28.89° C | 47% | 1015.3 hPa | 0 mm | - | 1064 W/m² | - |
| 1778000212 | 28.33° C | 47% | 1015.4 hPa | 0 mm | - | 1021 W/m² | - |
| 1777999908 | 28.33° C | 49% | 1015.3 hPa | 0 mm | - | 828 W/m² | - |
| 1777999604 | 28.33° C | 51% | 1015.4 hPa | 0 mm | - | 255 W/m² | - |
| 1777999302 | 28.33° C | 50% | 1015.6 hPa | 0 mm | - | 264 W/m² | - |
| 1777999000 | 28.33° C | 50% | 1015.7 hPa | 0 mm | - | 855 W/m² | - |
| 1777998698 | 28.33° C | 50% | 1015.6 hPa | 0 mm | - | 336 W/m² | - |
| 1777998394 | 28.33° C | 52% | 1015.7 hPa | 0 mm | - | 313 W/m² | - |
| 1777998092 | 28.89° C | 50% | 1015.7 hPa | 0 mm | - | 218 W/m² | - |
| 1777997789 | 28.33° C | 48% | 1015.6 hPa | 0 mm | - | 855 W/m² | - |
* Rain latest hour (hover to see other rain measurements)
** Current wind speed in m/s (hover to see current wind gust speed)